Погода в Кызылбае

Россия / Курганская область     56°20′56″N   64°15′54″E
темп.,
°C
ветер,
м/с
пор.,
м/с
влажн.,
%
обл.,
%
осадки,
мм/ч
давл.,
гПа
погр.,
м
4 марта, чт
чт423:00−8ююз369497 0.0 1000116
02:00−9ююз349594 0.0 99969
05:00−9ююз349775 0.0 99855
08:00−10юз349781 0.0 99758
11:00−6юз479177 0.1 997300
14:00−3зюз588995 0.0 996664
17:00−4зюз599497 0.2 997703
20:00−7зюз61286100 0.1 999343
5 марта, пт
пт523:00−11зюз499065 0.1 1000146
02:00−13ю479130 0.0 999103
05:00−9ююз6139565 0.1 997522
08:00−6юз81591100 0.9 996717
11:00−3зюз8148095 0.9 9961116
14:00−1зюз9137996 0.1 9971268
17:00−2зюз5138194 0.1 999872
20:00−4зюз51385100 0.0 1000435
6 марта, сб
сб623:00−6з51186100 0.0 1002303
02:00−10з499071 0.0 1003171
05:00−14зюз499246 0.0 1005156
08:00−15з511920 0.0 1007251
11:00−11з610840 0.0 1009456
14:00−9зюз69870 0.0 1009585
17:00−8зюз6108548 0.0 1009796
20:00−12юз489041 0.0 1010132
7 марта, вс
вс723:00−14зюз349150 0.0 101056
02:00−14з2291100 0.0 100920
05:00−16с1192100 0.0 100920
08:00−16с2292100 0.0 100820
11:00−11ссз228377 0.0 1008235
14:00−9сз23772 0.0 1008497
17:00−9зсз22868 0.0 1008121
20:00−12зюз2294100 0.0 101021
8 марта, пн
пн823:00−14юз339695 0.1 101130
02:00−16зюз349682 0.1 101256
05:00−19з339755 0.1 101322
08:00−21зюз239939 0.0 101320
11:00−16ю359365 0.0 1013233
14:00−11ю5990100 0.0 1011415
17:00−9ю71391100 0.1 1009661
20:00−13ю5138992 0.1 1008375